Content
SEND FEEDBACK

Iceland Flag

KEFLAVIK, ICELAND


Home > Europe > Iceland
Elevation: 177 feet     Latitude: 63 58N     Longitude: 022 36W

WEATHER
 
SELECT A DAY
Number of Records: 303,510;   Date Range: 7/1/96 - 3/22/16
 
SHARE

PRINT THIS DATA

[ ← Previous Day ]
WEATHER ALMANAC - FEBRUARY 12, 2013
[ Next Day → ]
[ °C ]   °F
Weather ElementAverageHighLow
Temperature32.7 °F37.4 °F (1:30 pm)28.4 °F (9:00 pm)
Dewpoint27.6 °F32 °F (12:30 pm)23 °F (10:00 pm)
Humidity81 %93 % (11:00 pm)65 % (6:00 am)
Barometer29.79 in29.92 in (12:00 am)29.56 in (11:00 pm)
Wind Speed9.2 mph12.7 mph (3:00 am)
Weather ElementAverage
Visibility21.4 mi
Wind DirectionENE (78.6 °)

Weather ElementTotal
Precipitation---
Heating Degree Days32.1 (Base 65)
Averaged from 51 records on February 12, 2013
WEATHER CONDITIONS BREAKOUT
WIND DIRECTION BREAKOUT
WEATHER BY HOUR - FEBRUARY 12, 2013
[ °C ]   °F
Local TimeTemperatureDewpointHumidityBarometerVisibilityWind DirectionWind SpeedGust SpeedPrecipitationEventsConditions
12:00 AM33.8 °F28.4 °F81 %29.92 in6.2 miEast (90°)9.2 mphScattered Clouds
12:30 AM35.6 °F28.4 °F75 %29.92 in6.2 miEast (100°)10.4 mphScattered Clouds
1:00 AM32.0 °F26.6 °F80 %29.92 in6.2 miEast (100°)9.2 mphScattered Clouds
1:30 AM33.8 °F28.4 °F81 %29.89 inEast (90°)11.5 mphClear
2:00 AM32.0 °F28.4 °F87 %29.89 inEast (100°)11.5 mphClear
2:30 AM32.0 °F28.4 °F87 %29.89 inEast (90°)11.5 mphClear
3:00 AM33.8 °F28.4 °F81 %29.89 inEast (90°)12.7 mphClear
3:30 AM32.0 °F26.6 °F80 %29.89 inEast (80°)9.2 mphClear
4:00 AM30.2 °F26.6 °F86 %29.89 inEast (90°)8.1 mphClear
4:30 AM30.2 °F26.6 °F86 %29.89 inEast (80°)9.2 mphClear
5:00 AM32.0 °F26.6 °F80 %29.89 inEast (90°)8.1 mphClear
5:30 AM32.0 °F24.8 °F75 %29.86 inEast (100°)8.1 mphClear
6:00 AM32.0 °F24.8 °F75 %29.86 inEast (100°)8.1 mphClear
6:00 AM32.0 °F25.0 °F65 %29.89 in31.0 miEast (100°)8.1 mphScattered Clouds
6:30 AM30.2 °F26.6 °F86 %29.86 inEast (90°)10.4 mphClear
7:00 AM32.0 °F26.6 °F80 %29.86 inEast (80°)11.5 mphClear
7:30 AM30.2 °F24.8 °F80 %29.86 inEast (90°)11.5 mphClear
8:00 AM32.0 °F26.6 °F80 %29.86 inEast (80°)11.5 mphClear
8:30 AM32.0 °F26.6 °F80 %29.86 inEast (90°)10.4 mphClear
9:00 AM30.2 °F26.6 °F86 %29.86 inEast (90°)9.2 mphClear
9:30 AM32.0 °F26.6 °F80 %29.83 inEast (90°)8.1 mphClear
10:00 AM32.0 °F26.6 °F80 %29.83 inENE (60°)4.6 mphClear
10:30 AM32.0 °F28.4 °F87 %29.83 inEast (80°)6.9 mphClear
11:00 AM33.8 °F28.4 °F81 %29.83 inEast (80°)8.1 mphClear
11:30 AM33.8 °F30.2 °F87 %29.83 inEast (80°)9.2 mphClear
12:00 PM33.8 °F30.2 °F87 %29.83 inEast (90°)9.2 mphClear
12:00 PM34.0 °F29.0 °F76 %29.85 in47.0 miEast (90°)9.2 mphScattered Clouds
12:30 PM35.6 °F32.0 °F87 %29.80 inENE (70°)8.1 mphClear
1:00 PM35.6 °F30.2 °F81 %29.80 in6.2 miENE (70°)9.2 mphPartly Cloudy
1:30 PM37.4 °F30.2 °F75 %29.80 inENE (70°)10.4 mphClear
2:00 PM37.4 °F30.2 °F75 %29.80 inENE (70°)10.4 mphClear
2:30 PM37.4 °F30.2 °F75 %29.77 inEast (80°)9.2 mphClear
3:00 PM37.4 °F30.2 °F75 %29.77 inEast (80°)10.4 mphClear
3:30 PM35.6 °F30.2 °F81 %29.74 inENE (70°)11.5 mphClear
4:00 PM35.6 °F28.4 °F75 %29.74 inENE (70°)10.4 mphClear
4:30 PM35.6 °F28.4 °F75 %29.74 inENE (70°)10.4 mphClear
5:00 PM33.8 °F28.4 °F81 %29.71 inENE (70°)8.1 mphClear
5:30 PM33.8 °F28.4 °F81 %29.71 inENE (60°)10.4 mphClear
6:00 PM33.8 °F26.6 °F75 %29.71 inENE (70°)10.4 mphClear
6:00 PM34.0 °F28.0 °F69 %29.72 in47.0 miENE (70°)10.4 mphScattered Clouds
6:30 PM33.8 °F26.6 °F75 %29.68 inENE (70°)10.4 mphClear
7:00 PM32.0 °F28.4 °F87 %29.68 inENE (70°)10.4 mphClear
7:30 PM30.2 °F26.6 °F86 %29.68 inEast (80°)8.1 mphClear
8:00 PM30.2 °F26.6 °F86 %29.65 inENE (70°)8.1 mphClear
8:30 PM30.2 °F26.6 °F86 %29.65 inENE (60°)9.2 mphClear
9:00 PM28.4 °F24.8 °F86 %29.62 inENE (60°)8.1 mphClear
9:30 PM30.2 °F24.8 °F80 %29.62 inENE (60°)9.2 mphClear
10:00 PM28.4 °F23.0 °F80 %29.59 inEast (80°)6.9 mphClear
10:30 PM32.0 °F28.4 °F87 %29.59 inENE (70°)4.6 mphClear
11:00 PM30.2 °F28.4 °F93 %29.56 inNE (40°)5.8 mphClear
11:30 PM28.4 °F26.6 °F93 %29.56 inNE (40°)5.8 mphClear
Hourly data recorded from BIKF, located miles away from Keflavik, Iceland




STORIES FROM OUR PARTNERS